This demonstration page uses our WeatherBlox Daily Observations layout. Learn more.

Left ArrowRight Arrow

39.51506, -84.39828

Hourly Observations for June 27, 2020

Temp ( °F °C ) Dew Point ( °F °C ) Humidity (%) Winds ( mph kmh ) Pressure ( in mb ) Visibility ( mi km ) Precip ( " mm )
12:15 am 00:15 Clear 76 24.5 68 20 76 76 SW 9 15 29.92 1013 10 16.0934 0 0
12:35 am 00:35 Clear 76 24.2 68 19.9 77 77 SW 12 19 29.92 1013 10 16.0934 0 0
12:55 am 00:55 Clear 75 24.1 68 19.8 77 77 SW 9 15 29.93 1013 10 16.0934 0 0
1:15 am 01:15 Clear 75 23.9 68 20 79 79 SSW 13 20 29.93 1013 10 16.0934 0 0
1:35 am 01:35 Clear 75 23.8 68 20.2 80 80 SW 13 20 29.92 1013 10 16.0934 0 0
1:55 am 01:55 Clear 74 23.5 68 20.2 82 82 SW 9 15 29.93 1013 10 16.0934 0 0
2:15 am 02:15 Clear 74 23.5 68 20.2 82 82 SW 8 13 29.93 1013 10 16.0934 0 0
2:35 am 02:35 Clear 75 23.8 68 20.2 80 80 SW 9 15 29.93 1013 10 16.0934 0 0
2:55 am 02:55 Clear 74 23.4 68 20.1 82 82 WSW 6 9 29.95 1014 10 16.0934 0 0
3:15 am 03:15 Clear 73 23 68 20.2 84 84 SSW 9 15 29.93 1013 10 16.0934 0 0
3:35 am 03:35 Clear 73 22.7 68 20.2 86 86 SW 8 13 29.93 1013 10 16.0934 0 0
3:55 am 03:55 Clear 72 22.2 68 20.2 89 89 SW 8 13 29.93 1014 10 16.0934 0 0
4:15 am 04:15 Partly Cloudy 73 22.7 69 20.4 87 87 SW 9 15 29.92 1013 10 16.0934 0 0
4:35 am 04:35 Partly Cloudy 72 22.2 69 20.4 90 90 SW 8 13 29.92 1013 10 16.0934 0 0
4:55 am 04:55 Cloudy 73 22.8 69 20.6 87 87 SW 10 17 29.92 1013 10 16.0934 0 0
5:15 am 05:15 Cloudy 73 22.9 69 20.8 88 88 SW 10 17 29.92 1013 10 16.0934 0 0
5:35 am 05:35 Cloudy 73 23 70 20.9 88 88 SW 7 11 29.92 1013 10 16.0934 0 0
5:55 am 05:55 Cloudy 74 23.1 70 21 88 88 SW 10 17 29.92 1013 10 16.0934 0 0
6:15 am 06:15 Cloudy 74 23.2 70 21.2 89 89 SW 9 15 29.91 1013 10 16.0934 0 0
6:35 am 06:35 Cloudy 74 23.3 70 21.3 89 89 SSW 12 19 29.9 1012 10 16.0934 0 0
6:55 am 06:55 Mostly Cloudy with Mist and Fog 74 23.2 70 21.3 89 89 SSW 13 20 29.89 1012 5 8.0467 0 0
7:15 am 07:15 Mostly Cloudy 74 23.3 71 21.4 89 89 SW 10 17 29.89 1012 10 16.0934 0 0
7:35 am 07:35 Cloudy 74 23.5 71 21.5 89 89 SW 12 19 29.9 1012 10 16.0934 0 0
7:55 am 07:55 Cloudy 74 23.5 71 21.5 89 89 SSW 12 19 29.9 1012 10 16.0934 0 0
8:15 am 08:15 Cloudy 75 23.8 71 21.6 88 88 SSW 14 22 29.89 1012 10 16.0934 0 0
8:35 am 08:35 Cloudy 75 23.8 71 21.7 88 88 SW 10 17 29.9 1012 10 16.0934 0 0
8:55 am 08:55 Cloudy 75 23.8 71 21.7 88 88 SW 10 17 29.9 1012 10 16.0934 0 0
9:15 am 09:15 Cloudy 75 23.8 71 21.6 88 88 SW 13 20 29.9 1012 10 16.0934 0 0
9:35 am 09:35 Cloudy 75 24 71 21.7 87 87 SW 10 17 29.9 1012 10 16.0934 0 0
9:55 am 09:55 Cloudy 76 24.2 71 21.7 86 86 WSW 13 20 29.9 1013 10 16.0934 0 0
10:15 am 10:15 Cloudy 76 24.5 71 21.8 85 85 SW 12 19 29.9 1013 10 16.0934 0 0
10:35 am 10:35 Cloudy 76 24.3 71 21.7 85 85 SW 9 15 29.91 1013 10 16.0934 0 0
10:55 am 10:55 Cloudy 76 24.3 71 21.6 85 85 SW 15 24 29.92 1013 10 16.0934 0 0
11:15 am 11:15 Cloudy with Nearby Thunderstorms 76 24.4 71 21.7 85 85 WSW 13 20 29.94 1014 10 16.0934 0 0
11:35 am 11:35 Cloudy with Heavy Rain 72 22.4 68 20.2 87 87 NW 10 17 29.97 1015 1.75 2.816345 0.03 0.762
11:55 am 11:55 Cloudy with Light Rain 70 21.2 68 19.8 92 92 W 8 13 29.95 1014 10 16.0934 0.04 1.016
12:15 pm 12:15 Partly Cloudy 71 21.4 68 20.2 93 93 SSW 8 13 29.95 1014 10 16.0934 0 0
12:35 pm 12:35 Mostly Cloudy 70 21.3 68 19.9 92 92 S 7 11 29.94 1014 10 16.0934 0 0
12:55 pm 12:55 Mostly Cloudy 71 21.7 68 20 90 90 SW 6 9 29.94 1014 10 16.0934 0 0
1:15 pm 13:15 Partly Cloudy 72 22.3 68 20.2 88 88 SW 7 11 29.93 1014 10 16.0934 0.01 0.254
1:35 pm 13:35 Mostly Cloudy with Light Rain 72 22 68 19.9 88 88 SW 6 9 29.92 1013 10 16.0934 0.01 0.254
1:55 pm 13:55 Cloudy with Light Rain 72 22.4 69 20.3 88 88 WSW 9 15 29.9 1012 10 16.0934 0.01 0.254
2:15 pm 14:15 Sunny 73 23 69 20.4 85 85 W 8 13 29.89 1012 10 16.0934 0 0
2:35 pm 14:35 Sunny 76 24.3 70 21 82 82 WSW 5 7 29.87 1012 10 16.0934 0 0
2:55 pm 14:55 Sunny 77 24.8 70 20.9 79 79 SW 7 11 29.86 1011 10 16.0934 0 0
3:15 pm 15:15 Partly Cloudy 77 24.9 71 21.4 81 81 WSW 7 11 29.86 1011 10 16.0934 0.01 0.254
3:35 pm 15:35 Partly Cloudy 78 25.4 72 22.2 83 83 WSW 6 9 29.85 1011 10 16.0934 0.01 0.254
3:55 pm 15:55 Sunny 78 25.5 72 22.2 82 82 SW 13 20 29.86 1011 10 16.0934 0.01 0.254
4:15 pm 16:15 Sunny 78 25.4 73 22.7 85 85 SW 10 17 29.86 1011 10 16.0934 0 0
4:35 pm 16:35 Mostly Cloudy 78 25.6 73 22.9 85 85 SW 9 15 29.86 1011 10 16.0934 0.01 0.254
4:55 pm 16:55 Cloudy 77 24.8 73 22.5 87 87 WSW 8 13 29.85 1011 10 16.0934 0.01 0.254
5:15 pm 17:15 Partly Cloudy 78 25.3 73 22.5 85 85 SW 9 15 29.85 1011 10 16.0934 0 0
5:35 pm 17:35 Partly Cloudy 78 25.3 73 22.7 86 86 SW 8 13 29.84 1011 10 16.0934 0 0
5:55 pm 17:55 Sunny 77 24.9 72 22.3 86 86 WSW 9 15 29.84 1011 10 16.0934 0 0
6:15 pm 18:15 Sunny 76 24.6 72 22.1 86 86 WSW 9 15 29.83 1010 10 16.0934 0.01 0.254
6:35 pm 18:35 Sunny 76 24.4 72 22 87 87 SW 10 17 29.83 1010 10 16.0934 0.01 0.254
6:55 pm 18:55 Partly Cloudy 76 24.6 72 22.4 88 88 SW 5 7 29.83 1010 7 11.26538 0.01 0.254
7:15 pm 19:15 Partly Cloudy 76 24.4 72 22.3 88 88 SW 6 9 29.81 1010 7 11.26538 0.01 0.254
7:35 pm 19:35 Sunny 76 24.6 72 22.2 87 87 SSW 3 6 29.81 1010 10 16.0934 0.01 0.254
7:55 pm 19:55 Sunny with Mist and Fog 76 24.6 72 22.2 87 87 SW 7 11 29.81 1010 5 8.0467 0.01 0.254
8:15 pm 20:15 Partly Cloudy 76 24.2 72 22.4 90 90 SW 5 7 29.84 1010 7 11.26538 0 0
8:35 pm 20:35 Sunny 75 24 72 22.1 89 89 SW 7 11 29.82 1010 7 11.26538 0.01 0.254
8:55 pm 20:55 Partly Cloudy 74 23.5 71 21.9 91 91 SW 6 9 29.84 1010 10 16.0934 0.01 0.254
9:15 pm 21:15 Partly Cloudy 73 23 71 21.8 93 93 WSW 5 7 29.84 1010 10 16.0934 0 0
9:35 pm 21:35 Cloudy 73 22.9 72 22 95 95 SW 5 7 29.84 1010 7 11.26538 0 0
9:55 pm 21:55 Cloudy 74 23.3 71 21.9 92 92 SSW 5 7 29.85 1011 10 16.0934 0 0
10:15 pm 22:15 Cloudy 74 23.5 71 21.8 90 90 SSW 6 9 29.85 1011 10 16.0934 0 0
10:35 pm 22:35 Cloudy 74 23.2 71 21.5 90 90 SW 5 7 29.86 1011 10 16.0934 0 0
10:55 pm 22:55 Partly Cloudy 73 22.6 70 21.2 92 92 SSW 5 7 29.85 1011 10 16.0934 0 0
11:15 pm 23:15 Partly Cloudy 72 22.3 70 21.2 94 94 WSW 3 6 29.86 1011 10 16.0934 0 0
11:35 pm 23:35 Cloudy 72 22.4 71 21.4 94 94 S 5 7 29.85 1011 10 16.0934 0 0
11:55 pm 23:55 Mostly Cloudy 72 22 70 21.2 95 95 SW 6 9 29.86 1011 10 16.0934 0.01 0.254

Powered by AerisWeather